User: anonymous   Login
Location: ?????
(32.7281°N, 34.9563°E)
Time: 06:35:02
(UTC+00:00)
Language:

Meteor 2-1 Rocket - Orbit

View from above orbital plane
View from above orbital plane
View from above satellite
View from above satellite

Ground track
Ground track

The orbit data is extracted from the following two-line orbital elements,

1 08027U 75064B   21015.56702595  .00000136  00000-0  72632-4 0  9991
2 08027  81.2954 235.4722 0054753 177.1201 183.0295 14.07357659336249
Epoch (UTC): 15 January 2021 13:36:31
Eccentricity: 0.0054753
inclination: 81.2954°
perigee height: 829 km
apogee height: 908 km
right ascension of ascending node: 235.4722°
argument of perigee: 177.1201°
revolutions per day: 14.07357659
mean anomaly at epoch: 183.0295°
orbit number at epoch: 33624

The dashed part of the orbit path shows where the satellite is in the earth's shadow,  

DLR